TimeCDT,TemperatureF,Dew PointF,Humidity,Sea Level PressureIn,VisibilityMPH,Wind Direction,Wind SpeedMPH,Gust SpeedMPH,PrecipitationIn,Events,Conditions,WindDirDegrees,DateUTC
12:53 AM,30.9,21.0,67,30.18,10.0,WSW,10.4,-,N/A,,Clear,250,2014-03-13 05:53:00
1:53 AM,30.9,21.9,69,30.17,10.0,West,12.7,-,N/A,,Clear,270,2014-03-13 06:53:00
2:53 AM,30.0,21.9,72,30.16,10.0,West,9.2,-,N/A,,Clear,260,2014-03-13 07:53:00
3:53 AM,30.9,21.9,69,30.15,10.0,West,11.5,-,N/A,,Clear,270,2014-03-13 08:53:00
4:53 AM,27.0,21.0,78,30.13,10.0,West,10.4,-,N/A,,Clear,260,2014-03-13 09:53:00
5:53 AM,27.0,21.0,78,30.12,10.0,West,6.9,-,N/A,,Clear,270,2014-03-13 10:53:00
6:53 AM,25.0,19.9,81,30.11,10.0,West,5.8,-,N/A,,Clear,270,2014-03-13 11:53:00
7:53 AM,26.1,19.9,78,30.12,10.0,West,9.2,-,N/A,,Clear,260,2014-03-13 12:53:00
8:53 AM,30.0,21.9,72,30.11,10.0,WSW,6.9,-,N/A,,Clear,250,2014-03-13 13:53:00
9:53 AM,35.1,21.9,59,30.10,10.0,WSW,9.2,-,N/A,,Clear,250,2014-03-13 14:53:00
10:53 AM,42.1,26.1,53,30.08,10.0,SW,9.2,-,N/A,,Clear,230,2014-03-13 15:53:00
11:53 AM,55.0,24.1,30,30.02,10.0,SW,9.2,-,N/A,,Clear,230,2014-03-13 16:53:00
12:53 PM,64.0,14.0,14,29.96,10.0,SSW,15.0,23.0,N/A,,Clear,200,2014-03-13 17:53:00
1:53 PM,66.9,10.9,11,29.90,10.0,SSW,17.3,29.9,N/A,,Clear,200,2014-03-13 18:53:00
2:53 PM,69.1,10.0,10,29.83,10.0,SW,13.8,26.5,N/A,,Clear,220,2014-03-13 19:53:00
3:53 PM,71.1,9.0,9,29.78,10.0,SSW,16.1,24.2,N/A,,Clear,200,2014-03-13 20:53:00
4:53 PM,70.0,3.0,7,29.76,10.0,SSW,20.7,27.6,N/A,,Clear,210,2014-03-13 21:53:00
5:53 PM,68.0,3.0,8,29.74,10.0,SSW,13.8,-,N/A,,Clear,210,2014-03-13 22:53:00
6:53 PM,66.9,3.9,8,29.72,10.0,SW,9.2,-,N/A,,Clear,220,2014-03-13 23:53:00
7:53 PM,60.1,8.1,13,29.73,10.0,SSW,6.9,-,N/A,,Clear,210,2014-03-14 00:53:00
8:53 PM,57.0,8.1,14,29.72,10.0,WSW,6.9,-,N/A,,Clear,240,2014-03-14 01:53:00
9:53 PM,46.9,12.9,25,29.73,10.0,SW,6.9,-,N/A,,Clear,220,2014-03-14 02:53:00
10:53 PM,43.0,16.0,34,29.74,10.0,WNW,12.7,-,N/A,,Clear,300,2014-03-14 03:53:00
11:53 PM,43.0,-9999,N/A,29.73,10.0,WNW,10.4,-,N/A,,Clear,290,2014-03-14 04:53:00